Weather History for PADQ - January, 2014

Change the Weather History Date:

Wednesday, January 15, 2014

  Actual Average Record
Temperature  
Mean Temperature 38 °F 30 °F  
Max Temperature 45 °F 35 °F 46 °F (1979)
Min Temperature 31 °F 26 °F 2 °F (1970)
Degree Days  
Heating Degree Days 27 35  
Month to date heating degree days 459 513  
Since 1 July heating degree days 3906 4354  
Cooling Degree Days 0    
Month to date cooling degree days 0  
Year to date cooling degree days 0  
Moisture  
Dew Point 36 °F    
Average Humidity 0    
Maximum Humidity 0    
Minimum Humidity 0    
Precipitation  
Precipitation 0.50 in 0.27 in 2.14 in (1982)
Month to date precipitation 4.05 4.15  
Year to date precipitation 4.05 4.15  
Snow  
Snow 0.00 in 0.40 in 9.00 in (1971)
Month to date snowfall 5.1 5.7  
Since 1 July snowfall 24.0 27.0  
Snow Depth 1.00 in    
Sea Level Pressure  
Sea Level Pressure 29.51 in    
Wind  
Wind Speed 7 mph (ESE)    
Max Wind Speed 16 mph    
Max Gust Speed 24 mph    
Visibility 7 miles    
Events Rain    
T = Trace of Precipitation, MM = Missing Value Source: NWS Daily Summary

Daily Weather History Graph

Daily Weather History Graph

Search for Another Location

Airport or City:

Trip Planner

Search our weather history database for the weather conditions in past years. The results will help you decide how hot, cold, wet, or windy it might be!

Date:

Astronomy

Jan. 15, 2014 Rise Set
Actual Time 9:41 AM AKST 4:58 PM AKST
Civil Twilight 8:53 AM AKST 5:45 PM AKST
Nautical Twilight 8:03 AM AKST 6:35 PM AKST
Astronomical Twilight 7:16 AM AKST 7:22 PM AKST
Moon 5:21 PM AKST (1/15) 8:50 AM AKST (1/15)
Length of Visible Light 8h 52m
Length of Day
7h 16m
Full, 100% of the Moon is Illuminated
Jan 15
Full
Jan 15
Full
Jan 23
Last Quarter
Jan 30
New
Feb 6
First Quarter

Hourly Weather History & Observations

Time (AKST) Temp. Windchill Dew Point Humidity Pressure Visibility Wind Dir Wind Speed Gust Speed Precip Events Conditions
12:53 AM 30.9 °F 26.2 °F 27.0 °F 85% 29.60 in 10.0 mi West 4.6 mph - N/A   Overcast
1:36 AM 32.0 °F - 28.4 °F 87% 29.59 in 10.0 mi Calm Calm - N/A   Overcast
1:53 AM 32.0 °F - 28.0 °F 85% 29.60 in 10.0 mi Calm Calm - N/A   Overcast
2:33 AM 35.6 °F 32.8 °F 33.8 °F 93% 29.58 in 4.0 mi East 3.5 mph - 0.00 in   Overcast
2:37 AM 35.6 °F - 33.8 °F 93% 29.58 in 2.5 mi Calm Calm - 0.00 in Rain Light Rain
2:47 AM 35.6 °F - 35.6 °F 100% 29.58 in 4.0 mi Calm Calm - 0.00 in Rain Light Rain
2:53 AM 35.1 °F 32.2 °F 34.0 °F 96% 29.58 in 4.0 mi South 3.5 mph - 0.00 in Rain Light Rain
3:40 AM 35.6 °F 31.7 °F 35.6 °F 100% 29.57 in 3.0 mi SSE 4.6 mph - 0.01 in Rain Light Rain
3:53 AM 36.0 °F 32.1 °F 35.1 °F 97% 29.58 in 3.0 mi SSE 4.6 mph - 0.02 in Rain Light Rain
4:53 AM 37.9 °F 30.0 °F 37.9 °F 100% 29.55 in 4.0 mi East 12.7 mph - 0.03 in Rain Light Rain
5:53 AM 37.9 °F 32.1 °F 37.9 °F 100% 29.52 in 4.0 mi NE 8.1 mph - 0.05 in Rain Light Rain
6:53 AM 35.1 °F 30.1 °F 35.1 °F 100% 29.50 in 4.0 mi SSW 5.8 mph - 0.08 in Rain Light Rain
7:53 AM 36.0 °F 32.1 °F 35.1 °F 97% 29.48 in 6.0 mi SW 4.6 mph - 0.04 in Rain Light Rain
8:53 AM 36.0 °F 33.3 °F 35.1 °F 97% 29.49 in 10.0 mi SSE 3.5 mph - 0.01 in Rain Light Rain
9:53 AM 37.0 °F - 36.0 °F 96% 29.50 in 10.0 mi Calm Calm - 0.00 in Rain Light Rain
10:53 AM 37.0 °F 33.3 °F 36.0 °F 96% 29.51 in 10.0 mi NE 4.6 mph - 0.01 in Rain Light Rain
11:53 AM 39.9 °F - 37.0 °F 89% 29.52 in 10.0 mi Calm Calm - 0.00 in   Overcast
12:53 PM 42.1 °F 37.7 °F 37.9 °F 85% 29.51 in 10.0 mi ENE 6.9 mph - 0.00 in   Overcast
1:53 PM 43.0 °F 38.2 °F 39.0 °F 86% 29.50 in 10.0 mi SE 8.1 mph - N/A   Overcast
2:53 PM 43.0 °F 41.3 °F 39.0 °F 86% 29.50 in 10.0 mi ESE 3.5 mph - N/A   Overcast
3:53 PM 42.1 °F 35.7 °F 39.0 °F 89% 29.50 in 10.0 mi SE 11.5 mph - N/A   Overcast
4:53 PM 42.1 °F 36.6 °F 39.0 °F 89% 29.51 in 10.0 mi East 9.2 mph - N/A   Overcast
5:53 PM 42.1 °F 34.5 °F 37.9 °F 85% 29.49 in 9.0 mi SSE 15.0 mph - N/A   Overcast
6:25 PM 41.0 °F 35.2 °F 39.2 °F 93% 29.48 in 4.0 mi SE 9.2 mph - N/A   Overcast
6:53 PM 41.0 °F 36.4 °F 39.0 °F 93% 29.47 in 10.0 mi SE 6.9 mph - N/A   Overcast
7:53 PM 39.9 °F 33.4 °F 37.9 °F 93% 29.46 in 9.0 mi ESE 10.4 mph - N/A   Overcast
8:53 PM 39.9 °F 33.4 °F 39.0 °F 97% 29.45 in 5.0 mi ESE 10.4 mph - N/A   Overcast
9:00 PM 39.2 °F 33.6 °F 39.2 °F 100% 29.44 in 6.0 mi East 8.1 mph - N/A   Overcast
9:53 PM 39.9 °F 35.1 °F 37.9 °F 93% 29.41 in 5.0 mi NNE 6.9 mph - 0.02 in Rain Light Rain
10:53 PM 39.9 °F 33.4 °F 37.9 °F 93% 29.39 in 6.0 mi North 10.4 mph - 0.10 in Rain Rain
11:53 PM 39.9 °F 33.9 °F 37.9 °F 93% 29.36 in 6.0 mi North 9.2 mph - 0.13 in Rain Rain